QIANFAN-6 (60384 NORAD) Tracking and Keplerian Element Data

This shows tracking and keplerian element data for the satellite.

Feedback or suggestion? Click here.




ElementValue
Catalog60384
NameQIANFAN-6
Epoch Orbit960
Epoch Day286.59248283
Epoch Year2024
RAAN343.4353
Inclination88.9943
Eccentricity0.0015227
Argument of Perigee16.523
Mean Anonmoly343.6456
Mean Motion14.25431336
Decay Rate2.182E-05
L11 60384U 24140F 24286.59248283 .00002182 00000+0 91797-3 0 9993
L22 60384 88.9943 343.4353 0015227 16.5230 343.6456 14.25431336 9601



Live tracking and technical data element details for QIANFAN-6 (NORAD 60384). QIANFAN-6 can be tracked NOW for your location showing map with azimuth and elevation plus other details from your city location.







IsCatalogInMostPopularTable: catalog: 60384, numindb: 5
Update: records affected: 1



GetName: 60384 QIANFAN-6

Hit Count: updated at: Tue, 03 Dec 2024 01:39:02 GMT